Weather reports worldwide

Advertisment
Deuselbach, Germany (10615): temperature & dewpoint: 06.12.2018 00:00:00 - 12.12.2018 00:00:00 (CET)Deuselbach, Germany (10615): temperature 5cm & temperature -5cm: 06.12.2018 00:00:00 - 12.12.2018 00:00:00 (CET)Deuselbach, Germany (10615): temperature -20cm & temperature -100cm: 06.12.2018 00:00:00 - 12.12.2018 00:00:00 (CET)Deuselbach, Germany (10615): wind speed & gusts: 06.12.2018 00:00:00 - 12.12.2018 00:00:00 (CET)Deuselbach, Germany (10615): wind direction: 06.12.2018 00:00:00 - 12.12.2018 00:00:00 (CET)Deuselbach, Germany (10615): reduced air pressure: 06.12.2018 00:00:00 - 12.12.2018 00:00:00 (CET)Deuselbach, Germany (10615): visibility: 06.12.2018 00:00:00 - 12.12.2018 00:00:00 (CET)Deuselbach, Germany (10615): sunshine duration: 06.12.2018 00:00:00 - 12.12.2018 00:00:00 (CET)Deuselbach, Germany (10615): precipitation: 06.12.2018 00:00:00 - 12.12.2018 00:00:00 (CET)
Date & Time tt [°C] td [°C] tt 5cm [°C] tt -5cm [°C] tt -20cm [°C] tt -100cm [°C] ff [km/h] ff [kn] fx [km/h] fx [kn] dd ppp [hPa] vv [km] sd [min] rr [mm]
12.12.2018 00:00:00 0,6 -1,1 0,1 1,9 3,6 7,3 6 4 11 6 W 1025,2 23 0 0,0
11.12.2018 23:00:00 0,7 -1,3 0,4 1,9 3,6 7,3 10 5 13 7 WSW 1025,4 28 0 0,0
11.12.2018 22:00:00 0,8 -1,2 0,4 2,0 3,7 7,3 9 5 12 7 WSW 1025,4 28 0 0,0
11.12.2018 21:00:00 0,7 -1,4 0,2 2,0 3,9 7,3 7 4 10 6 WSW 1025,4 31 0 0,0
11.12.2018 20:00:00 0,4 -1,5 -1,5 2,3 4,0 7,3 6 3 11 6 S 1025,6 31 0 0,0
11.12.2018 19:00:00 1,4 -1,3 0,7 2,7 4,1 7,3 6 3 21 11 WNW 1025,3 36 0 0,0
11.12.2018 18:00:00 1,6 -1,1 1,3 2,9 4,1 7,3 13 7 23 12 WSW 1024,7 40 0 0,0
11.12.2018 17:00:00 1,4 -1,2 0,8 3,3 4,2 7,4 11 6 22 12 W 1024,8 34 0 0,0
11.12.2018 16:00:00 2,5 -1,2 2,4 3,6 4,1 7,4 14 8 22 12 W 1024,4 36 0 0,0
11.12.2018 15:00:00 2,3 -1,0 2,6 3,8 4,0 7,4 9 5 15 8 WSW 1024,7 33 0 0,0
11.12.2018 14:00:00 2,2 -0,8 2,8 3,8 3,8 7,4 13 7 17 9 W 1024,9 32 1 0,0
11.12.2018 13:00:00 2,2 -0,8 2,9 3,6 3,7 7,4 13 7 27 15 NW 1025,1 35 21 0,0
11.12.2018 12:00:00 2,3 -1,1 3,8 2,8 3,6 7,4 16 9 25 13 WNW 1025,5 29 21 0,0
11.12.2018 11:00:00 1,7 -1,3 2,9 2,5 3,6 7,4 10 5 17 9 W 1025,9 28 21 0,0
11.12.2018 10:00:00 1,0 -0,3 1,2 2,1 3,6 7,4 13 7 21 11 W 1025,7 19 0 0,0
11.12.2018 09:00:00 0,6 -0,6 0,7 2,0 3,6 7,4 14 8 22 12 W 1025,8 15 0 0,0
11.12.2018 08:00:00 0,7 -0,6 0,8 2,2 3,7 7,4 16 9 23 12 W 1025,4 17 0 0,0
11.12.2018 07:00:00 0,8 -0,7 0,8 2,2 3,7 7,4 16 8 25 14 W 1025,3 22 0 0,0
11.12.2018 06:00:00 1,0 -0,6 1,0 2,2 3,7 7,5 17 9 25 14 W 1025,4 26 0 0,0
11.12.2018 05:00:00 1,1 -0,8 1,0 2,3 3,8 7,5 11 6 21 11 W 1025,3 31 0 0,0
11.12.2018 04:00:00 1,2 -0,8 1,1 2,3 3,8 7,5 14 8 21 11 W 1025,4 31 0 0,0
11.12.2018 03:00:00 1,0 -1,0 0,9 2,3 3,9 7,5 12 6 20 11 W 1025,6 36 0 0,0
11.12.2018 02:00:00 1,3 -1,0 1,0 2,3 4,0 7,5 13 7 23 13 W 1025,4 38 0 0,0
11.12.2018 01:00:00 1,3 -1,0 1,0 2,3 4,0 7,5 12 7 23 13 W 1025,4 43 0 0,0
11.12.2018 00:00:00 1,3 -0,8 1,0 2,4 4,1 7,5 10 5 19 11 W 1025,4 40 0 0,0
10.12.2018 23:00:00 1,3 -1,1 0,3 2,5 4,2 7,5 11 6 22 12 W 1025,3 51 0 0,0
10.12.2018 22:00:00 1,6 -0,4 1,2 2,6 4,3 7,5 16 9 26 14 WNW 1025,1 48 0 0,0
10.12.2018 21:00:00 1,6 -0,3 0,9 2,9 4,4 7,5 17 9 38 20 NW 1024,9 64 0 0,0
10.12.2018 20:00:00 2,0 0,7 1,8 3,1 4,5 7,5 20 11 34 19 WNW 1024,7 38 0 0,1
10.12.2018 19:00:00 2,0 0,2 1,6 3,2 4,5 7,5 24 13 47 26 NW 1024,4 6 0 0,3
10.12.2018 18:00:00 3,6 -1,0 3,4 3,4 4,6 7,5 26 14 45 24 WNW 1023,6 64 0 0,0
10.12.2018 17:00:00 3,8 -1,1 3,5 3,6 4,6 7,5 29 16 46 25 W 1023,2 54 0 0,0
10.12.2018 16:00:00 3,9 -0,5 3,6 3,9 4,6 7,5 23 13 36 19 W 1023,0 64 0 0,0
10.12.2018 15:00:00 4,0 -0,8 3,9 4,2 4,5 7,5 27 15 43 23 WNW 1023,0 64 7 0,0
10.12.2018 14:00:00 4,5 0,0 4,9 4,4 4,3 7,5 26 14 41 22 WNW 1023,0 42 40 0,0
10.12.2018 13:00:00 3,5 -0,3 3,3 3,7 4,2 7,5 28 15 42 23 WNW 1023,4 50 22 0,0
10.12.2018 12:00:00 3,3 0,7 3,1 3,1 4,2 7,5 23 12 36 19 W 1023,9 40 1 0,0
10.12.2018 11:00:00 2,5 0,6 2,1 2,6 4,2 7,5 23 12 41 22 NW 1024,1 40 29 0,1
10.12.2018 10:00:00 2,2 0,2 1,7 2,4 4,3 7,5 20 11 40 22 W 1023,6 32 1 0,0
10.12.2018 09:00:00 2,1 0,3 1,0 2,3 4,5 7,5 28 15 45 24 W 1022,9 31 0 0,0
10.12.2018 08:00:00 1,7 0,1 0,7 2,4 4,7 7,5 22 12 42 23 W 1022,7 30 0 0,0
10.12.2018 07:00:00 1,9 -0,1 0,9 2,7 4,8 7,5 28 15 39 21 W 1022,1 30 0 0,0
10.12.2018 06:00:00 2,0 -0,2 1,0 3,2 5,0 7,5 23 13 40 21 WNW 1021,3 35 0 0,1
10.12.2018 05:00:00 1,8 0,9 1,7 3,4 5,1 7,5 18 10 34 18 WNW 1021,1 43 0 0,0
10.12.2018 04:00:00 2,0 0,6 1,7 3,6 5,3 7,6 26 14 52 28 WNW 1020,7 38 0 1,4
10.12.2018 03:00:00 3,3 1,2 2,6 4,1 5,4 7,6 28 15 42 23 WNW 1019,7 8 0 0,1
10.12.2018 02:00:00 3,4 1,4 3,4 4,2 5,4 7,6 18 10 38 20 WNW 1018,8 42 0 0,0
10.12.2018 01:00:00 3,7 1,5 3,2 4,4 5,5 7,6 26 14 45 25 WNW 1018,2 38 0 0,0
10.12.2018 00:00:00 3,9 2,1 3,4 4,5 5,6 7,6 28 15 43 23 W 1017,2 28 0 0,0
09.12.2018 23:00:00 3,8 2,2 3,3 4,6 5,6 7,6 20 11 39 21 WNW 1016,4 47 0 0,2
09.12.2018 22:00:00 4,2 1,9 3,8 4,7 5,7 7,6 28 15 40 21 WNW 1015,3 18 0 0,0
09.12.2018 21:00:00 4,4 1,8 4,2 4,8 5,8 7,6 30 16 51 27 WNW 1014,1 53 0 0,0
09.12.2018 20:00:00 4,6 2,0 4,1 4,9 5,8 7,6 25 13 51 27 WNW 1012,7 68 0 0,0
09.12.2018 19:00:00 4,9 3,2 4,5 5,1 5,9 7,6 24 13 51 28 WNW 1011,1 52 0 0,2
09.12.2018 18:00:00 5,3 3,0 5,0 5,2 5,9 7,6 24 13 52 28 WNW 1009,2 64 0 0,0
09.12.2018 17:00:00 5,3 3,2 4,6 5,4 6,0 7,6 35 19 61 33 WNW 1007,5 75 0 0,1
09.12.2018 16:00:00 5,3 3,3 4,5 5,6 6,0 7,6 33 18 57 31 W 1005,9 75 1 0,0
09.12.2018 15:00:00 5,6 3,5 5,2 5,7 5,9 7,6 41 22 72 39 W 1004,6 33 0 0,3
09.12.2018 14:00:00 5,3 3,8 4,8 5,7 5,9 7,6 35 19 63 34 W 1003,8 13 0 0,5
09.12.2018 13:00:00 5,7 3,3 5,5 5,6 5,8 7,6 44 24 71 38 W 1003,8 59 0 0,2
09.12.2018 12:00:00 5,5 4,0 5,2 5,4 5,8 7,6 44 24 62 33 W 1003,9 11 0 0,3
09.12.2018 11:00:00 5,0 3,3 4,6 5,1 5,8 7,6 39 21 56 31 W 1004,1 36 0 0,1
09.12.2018 10:00:00 4,8 3,0 4,3 5,0 5,8 7,6 36 20 65 35 W 1003,9 27 0 0,4
09.12.2018 09:00:00 4,9 3,2 4,3 5,0 5,9 7,6 45 24 67 36 W 1003,2 10 0 0,7
09.12.2018 08:00:00 5,0 2,8 4,4 5,0 6,0 7,6 36 19 63 34 W 1002,7 20 0 0,0
09.12.2018 07:00:00 5,2 2,4 4,8 5,2 6,1 7,6 41 22 66 36 W 1001,7 53 0 0,3
09.12.2018 06:00:00 5,2 3,3 4,5 5,3 6,1 7,5 35 19 61 33 W 1001,6 11 0 0,1
09.12.2018 05:00:00 5,3 2,7 5,0 5,5 6,2 7,5 38 21 68 37 W 1001,4 67 0 0,0
09.12.2018 04:00:00 6,1 3,5 5,7 5,7 6,2 7,5 40 22 64 35 W 1000,6 29 0 0,0
09.12.2018 03:00:00 6,2 4,1 5,7 5,9 6,3 7,5 40 22 64 35 W 1000,5 45 0 0,3
09.12.2018 02:00:00 6,5 4,7 5,8 6,1 6,3 7,5 50 27 72 39 W 1000,3 12 0 2,0
09.12.2018 01:00:00 6,6 4,1 6,0 6,3 6,2 7,5 45 24 113 61 W 1000,3 33 0 2,0
09.12.2018 00:00:00 8,0 5,8 7,0 6,3 6,1 7,5 50 27 86 46 W 999,8 5 0 1,5
08.12.2018 23:00:00 7,6 6,4 7,0 6,2 6,0 7,6 33 18 61 33 WSW 1000,4 4,3 0 1,8
08.12.2018 22:00:00 7,2 6,0 6,8 6,0 6,0 7,6 37 20 65 35 SW 1002,1 2,3 0 1,1
08.12.2018 21:00:00 6,9 5,7 6,3 5,8 5,9 7,6 36 20 61 33 SW 1003,9 6 0 0,4
08.12.2018 20:00:00 6,4 5,3 6,0 5,6 5,9 7,6 32 17 55 30 WSW 1005,4 3,3 0 0,8
08.12.2018 19:00:00 6,0 4,9 5,5 5,5 5,9 7,6 31 17 53 29 SW 1007,1 3,5 0 0,9
08.12.2018 18:00:00 5,6 4,5 5,3 5,4 5,9 7,6 29 16 53 28 SW 1008,6 3,2 0 0,3
08.12.2018 17:00:00 5,7 4,1 5,1 5,4 5,9 7,6 29 16 66 36 WSW 1009,4 24 0 0,3
08.12.2018 16:00:00 5,6 4,1 5,1 5,4 5,9 7,6 40 22 78 42 W 1009,4 22 0 0,9
08.12.2018 15:00:00 5,4 4,3 5,0 5,4 5,8 7,7 29 16 64 35 W 1009,4 4,9 0 3,0
08.12.2018 14:00:00 5,4 3,8 4,9 5,3 5,8 7,7 46 25 63 34 W 1009,6 10 0 0,6
08.12.2018 13:00:00 5,2 3,7 4,9 5,1 5,7 7,7 42 23 70 38 W 1009,8 13 0 0,9
08.12.2018 12:00:00 4,9 3,5 4,6 4,9 5,7 7,7 40 22 62 33 W 1009,6 21 0 1,2
08.12.2018 11:00:00 4,5 3,0 4,2 4,7 5,7 7,7 32 18 71 38 WSW 1010,2 13 0 0,1
08.12.2018 10:00:00 4,1 2,9 3,8 4,5 5,8 7,7 31 17 50 27 WSW 1010,3 8 0 0,7
08.12.2018 09:00:00 3,5 2,2 3,3 4,4 5,9 7,7 27 15 52 28 WSW 1010,9 11 0 1,0
08.12.2018 08:00:00 3,5 2,1 3,1 4,5 5,9 7,7 29 16 53 28 SW 1010,9 27 0 0,6
08.12.2018 07:00:00 3,8 2,1 3,2 4,5 6,0 7,7 35 19 63 34 WSW 1011,0 15 0 0,1
08.12.2018 06:00:00 3,7 2,1 3,3 4,5 6,1 7,7 32 17 57 31 WSW 1011,4 12 0 0,0
08.12.2018 05:00:00 3,6 2,1 3,1 4,6 6,3 7,7 28 15 43 23 WSW 1011,6 14 0 0,3
08.12.2018 04:00:00 3,7 1,6 3,0 4,7 6,4 7,7 30 16 50 27 WSW 1012,0 54 0 0,0
08.12.2018 03:00:00 3,8 1,9 3,2 4,9 6,6 7,7 27 14 59 32 WSW 1011,9 25 0 0,2
08.12.2018 02:00:00 3,9 2,5 3,5 5,1 6,7 7,7 34 18 52 28 W 1011,2 17 0 0,8
08.12.2018 01:00:00 4,3 2,0 3,5 5,3 6,9 7,7 33 18 58 31 W 1011,4 35 0 0,0
08.12.2018 00:00:00 3,9 2,4 3,5 5,5 7,1 7,7 24 13 44 24 WNW 1011,0 14 0 0,7
07.12.2018 23:00:00 4,7 1,9 4,3 5,9 7,3 7,7 33 18 50 27 W 1010,0 42 0 0,0
07.12.2018 22:00:00 4,8 3,0 4,5 6,3 7,4 7,6 29 15 58 31 W 1008,6 46 0 0,1
07.12.2018 21:00:00 5,5 3,7 5,2 6,6 7,5 7,6 34 19 58 31 W 1006,6 23 0 0,0
07.12.2018 20:00:00 5,4 3,4 5,1 7,1 7,6 7,6 41 22 78 42 W 1005,6 75 0 2,3
07.12.2018 19:00:00 7,7 6,3 7,1 7,3 7,7 7,6 35 19 67 36 SW 1002,5 7 0 3,8
07.12.2018 18:00:00 7,5 6,0 6,8 7,4 7,7 7,7 32 17 68 37 SSW 1003,4 7 0 1,6
07.12.2018 17:00:00 7,4 6,0 6,8 7,5 7,8 7,7 30 16 76 41 SW 1004,7 18 0 0,8
07.12.2018 16:00:00 7,6 5,8 6,8 7,8 7,8 7,7 31 17 62 33 SW 1006,2 17 0 0,3
07.12.2018 15:00:00 7,6 6,4 7,3 7,9 7,8 7,7 31 17 55 30 SW 1007,6 3,2 0 0,1
07.12.2018 14:00:00 7,9 6,7 7,6 8,0 7,8 7,6 25 13 52 28 SW 1008,7 3,5 0 0,2
07.12.2018 13:00:00 8,0 6,8 7,6 8,0 7,8 7,6 29 16 58 31 SW 1010,7 18 0 0,3
07.12.2018 12:00:00 8,1 7,1 7,8 8,0 7,8 7,6 34 18 60 32 SW 1012,1 11 0 0,0
07.12.2018 11:00:00 8,2 7,3 7,8 7,9 7,8 7,6 37 20 60 32 WSW 1013,0 12 0 -
07.12.2018 10:00:00 8,0 7,0 7,8 7,9 7,8 7,6 35 19 58 31 SW 1013,7 10 0 0,0
07.12.2018 09:00:00 8,2 7,0 7,9 7,9 7,9 7,6 28 15 54 29 SW 1014,4 17 0 0,0
07.12.2018 08:00:00 8,5 6,5 8,0 8,0 7,9 7,6 28 15 45 24 SW 1014,9 35 0 0,0
07.12.2018 07:00:00 8,7 6,6 8,3 8,2 7,9 7,6 29 16 49 26 SW 1015,5 46 0 0,0
07.12.2018 06:00:00 8,7 7,2 8,2 8,3 7,9 7,6 18 10 42 23 SW 1016,0 32 0 0,0
07.12.2018 05:00:00 9,0 7,7 8,5 8,4 7,9 7,6 26 14 49 27 WSW 1016,5 9 0 0,1
07.12.2018 04:00:00 9,3 8,4 9,0 8,5 7,9 7,6 21 12 36 19 WSW 1017,2 7 0 0,0
07.12.2018 03:00:00 9,4 8,4 9,1 8,5 7,8 7,6 19 10 37 20 WSW 1017,8 10 0 0,0
07.12.2018 02:00:00 9,5 8,5 9,2 8,5 7,8 7,6 23 12 40 22 WSW 1018,2 7 0 0,0
07.12.2018 01:00:00 9,7 8,6 9,3 8,5 7,8 7,6 19 10 37 20 WSW 1018,7 26 0 0,0
07.12.2018 00:00:00 9,6 8,6 9,3 8,4 7,7 7,6 24 13 39 21 WSW 1018,9 13 0 0,1
06.12.2018 23:00:00 9,5 8,6 9,2 8,4 7,7 7,6 21 12 35 19 WSW 1019,3 5 0 0,0
06.12.2018 22:00:00 10,0 8,3 9,6 8,4 7,6 7,6 19 10 38 20 WSW 1019,6 21 0 0,0
06.12.2018 21:00:00 9,9 8,4 9,6 8,3 7,6 7,6 25 13 38 20 WSW 1019,5 42 0 0,0
06.12.2018 20:00:00 9,7 8,6 9,3 8,2 7,5 7,6 24 13 40 22 WSW 1019,5 26 0 0,0
06.12.2018 19:00:00 9,4 8,4 9,1 8,2 7,5 7,6 19 10 27 15 WSW 1019,9 6 0 0,0
06.12.2018 18:00:00 9,6 8,0 9,3 8,2 7,5 7,6 17 9 26 14 WSW 1019,8 40 0 0,0
06.12.2018 17:00:00 9,3 7,7 8,9 8,3 7,4 7,6 17 9 23 13 WSW 1019,8 37 0 0,0
06.12.2018 16:00:00 9,4 7,5 9,1 8,5 7,3 7,6 16 8 27 15 WSW 1019,7 41 0 0,0
06.12.2018 15:00:00 9,7 7,3 9,4 8,6 7,1 7,6 16 9 31 17 WSW 1019,5 51 0 0,0
06.12.2018 14:00:00 9,7 7,1 9,5 8,5 6,9 7,6 18 10 31 17 WSW 1019,5 41 0 0,0
06.12.2018 13:00:00 9,7 7,9 9,6 8,4 6,6 7,6 18 10 28 15 WSW 1019,4 30 2 0,0
06.12.2018 12:00:00 9,7 8,0 9,8 7,6 6,4 7,6 17 9 22 12 WSW 1019,3 29 7 0,0
06.12.2018 11:00:00 8,4 8,0 8,4 6,9 6,3 7,6 14 8 25 14 W 1019,8 7 0 0,0
06.12.2018 10:00:00 8,2 7,6 8,1 6,6 6,2 7,6 18 10 30 16 W 1019,5 2,4 0 0,0
06.12.2018 09:00:00 7,9 7,2 7,6 6,4 6,2 7,6 10 5 26 14 WSW 1018,8 21 0 0,0
06.12.2018 08:00:00 7,3 6,7 7,1 6,2 6,1 7,7 17 9 27 15 WSW 1018,0 11 0 0,1
06.12.2018 07:00:00 6,9 6,4 6,8 6,1 6,1 7,7 19 11 30 16 SW 1017,2 3,7 0 0,0
06.12.2018 06:00:00 6,7 5,9 6,5 6,0 6,0 7,7 16 9 25 13 SW 1016,9 8 0 0,0
06.12.2018 05:00:00 6,6 5,5 6,3 5,9 6,0 7,7 14 8 28 15 SW 1016,4 18 0 0,0
06.12.2018 04:00:00 6,7 5,5 6,1 5,8 6,0 7,7 18 10 26 14 SSW 1016,3 16 0 0,1
06.12.2018 03:00:00 6,4 5,1 6,0 5,8 5,9 7,7 17 9 31 17 SSW 1017,0 18 0 0,4
06.12.2018 02:00:00 6,7 4,9 6,1 5,7 5,9 7,7 18 10 29 16 SW 1016,4 16 0 0,1
06.12.2018 01:00:00 6,9 5,1 6,2 5,6 5,9 7,7 13 7 26 14 SW 1016,6 37 0 0,1
06.12.2018 00:00:00 6,4 5,0 5,9 5,5 5,8 7,7 19 10 32 17 W 1017,5 20 0 1,4

tt = temperature
td = dewpoint
tt 5cm = temperature 5cm
tt -5cm = temperature -5cm
tt -20cm = temperature -20cm
tt -100cm = temperature -100cm
ff = wind speed
fx = gusts
dd = wind direction
ppp = reduced air pressure
vv = visibility
sd = sunshine duration
rr = precipitation

Next stations